����,���ϕ���(m/s),���ϕ���,�ő�u�ԕ���(m/s),�ő啗��������,�C��(��),���x(%),10���Ԉړ��ώZ�J��(mm),1���Ԉړ��ώZ�J��(mm),���J��(mm),�݌v�J��(mm),����(���ώZ)(MJ/m2),����(���ώZ)(min),���n�C��(hPa),�C�ʋC��(hPa)
2020-02-24T00:00:00+09:00,0.5,���k��,1.2,���k��,0.6,89.3,0,0,0,0,8.09,141,1013.1,1027.8
2020-02-24T00:01:00+09:00,0.5,���k��,1.2,���k��,0.6,89.7,0,0,0,0,0,0,1013.1,1027.8
2020-02-24T00:02:00+09:00,0.5,��,1.2,���k��,0.5,89.5,0,0,0,0,0,0,1013.1,1027.8
2020-02-24T00:03:00+09:00,0.4,��,0.9,��,0.8,90.1,0,0,0,0,0,0,1013.1,1027.8
2020-02-24T00:04:00+09:00,0.4,��,0.9,��,0.7,90.3,0,0,0,0,0,0,1013.1,1027.8
2020-02-24T00:05:00+09:00,0.4,��,0.9,��,0.4,89.2,0,0,0,0,0,0,1013.1,1027.9
2020-02-24T00:06:00+09:00,0.3,��,0.9,��,0.7,89.3,0,0,0,0,0,0,1013.1,1027.8
2020-02-24T00:07:00+09:00,0.3,��,0.9,��,0.4,89.2,0,0,0,0,0,0,1013.1,1027.9
2020-02-24T00:08:00+09:00,0.3,���쐼,0.9,��,0.5,88.9,0,0,0,0,0,0,1013.1,1027.8
2020-02-24T00:09:00+09:00,0.3,���쐼,0.9,��,0.7,89.4,0,0,0,0,0,0,1013.1,1027.8
2020-02-24T00:10:00+09:00,0.2,�É�,0.9,��,0.6,89.7,0,0,0,0,0,0,1013.1,1027.8
2020-02-24T00:11:00+09:00,0.2,�É�,0.9,���k��,0.5,89.3,0,0,0,0,0,0,1013.1,1027.8
2020-02-24T00:12:00+09:00,0.2,�É�,0.9,���k��,0.4,89.1,0,0,0,0,0,0,1013.1,1027.9
2020-02-24T00:13:00+09:00,0.3,��,0.9,���k��,0.3,88.8,0,0,0,0,0,0,1013,1027.8
2020-02-24T00:14:00+09:00,0.3,��,1.1,��,0.3,89,0,0,0,0,0,0,1013.1,1027.9
2020-02-24T00:15:00+09:00,0.4,��,1.3,��,0.3,88.8,0,0,0,0,0,0,1013,1027.8
2020-02-24T00:16:00+09:00,0.6,��,1.3,��,0.4,89,0,0,0,0,0,0,1013.1,1027.9
2020-02-24T00:17:00+09:00,0.7,��,1.4,��,0.3,89.1,0,0,0,0,0,0,1013.1,1027.9
2020-02-24T00:18:00+09:00,0.8,���k��,1.6,��,0.5,89.1,0,0,0,0,0,0,1013.1,1027.8
2020-02-24T00:19:00+09:00,1,���k��,1.7,��,0.5,89.2,0,0,0,0,0,0,1013.1,1027.8
2020-02-24T00:20:00+09:00,1.1,��,1.7,��,0.5,89.3,0,0,0,0,0,0,1013.1,1027.8
2020-02-24T00:21:00+09:00,1.2,��,1.7,��,0.5,88.9,0,0,0,0,0,0,1013.1,1027.8
2020-02-24T00:22:00+09:00,1.2,��,1.7,��,0.5,88.6,0,0,0,0,0,0,1013.1,1027.8
2020-02-24T00:23:00+09:00,1.3,��,1.7,��,0.6,88.9,0,0,0,0,0,0,1013.1,1027.8
2020-02-24T00:24:00+09:00,1.2,��,1.7,��,0.6,88.9,0,0,0,0,0,0,1013.1,1027.8
2020-02-24T00:25:00+09:00,1.2,��,1.7,��,0.7,88.8,0,0,0,0,0,0,1013.2,1027.9
2020-02-24T00:26:00+09:00,1.2,��,1.7,��,0.6,88.4,0,0,0,0,0,0,1013.2,1027.9
2020-02-24T00:27:00+09:00,1.3,��,1.9,��,0.6,87.6,0,0,0,0,0,0,1013.2,1027.9
2020-02-24T00:28:00+09:00,1.3,��,2.1,��,0.4,87,0,0,0,0,0,0,1013.2,1028
2020-02-24T00:29:00+09:00,1.3,��,2.2,��,0.3,86.5,0,0,0,0,0,0,1013.2,1028
2020-02-24T00:30:00+09:00,1.4,��,2.3,���k��,0.2,86.3,0,0,0,0,0,0,1013.2,1028
2020-02-24T00:31:00+09:00,1.5,��,2.3,���k��,0.2,86.8,0,0,0,0,0,0,1013.2,1028
2020-02-24T00:32:00+09:00,1.5,���k��,2.3,���k��,0.1,86.9,0,0,0,0,0,0,1013.2,1028
2020-02-24T00:33:00+09:00,1.6,���k��,2.3,���k��,0.3,87.3,0,0,0,0,0,0,1013.2,1028
2020-02-24T00:34:00+09:00,1.7,���k��,2.3,���k��,0.3,87.8,0,0,0,0,0,0,1013.2,1028
2020-02-24T00:35:00+09:00,1.7,���k��,2.3,���k��,0.3,87.8,0,0,0,0,0,0,1013.2,1028
2020-02-24T00:36:00+09:00,1.7,���k��,2.3,���k��,0.3,87.7,0,0,0,0,0,0,1013.2,1028
2020-02-24T00:37:00+09:00,1.6,���k��,2.3,���k��,0.3,87.8,0,0,0,0,0,0,1013.2,1028
2020-02-24T00:38:00+09:00,1.5,���k��,2.3,���k��,0.2,87.7,0,0,0,0,0,0,1013.2,1028
2020-02-24T00:39:00+09:00,1.4,���k��,2.3,���k��,0,86.6,0,0,0,0,0,0,1013.3,1028.1
2020-02-24T00:40:00+09:00,1.2,���k��,2.3,���k��,0,86.4,0,0,0,0,0,0,1013.2,1028
2020-02-24T00:41:00+09:00,1.1,���k��,2.2,���k��,0,86.7,0,0,0,0,0,0,1013.2,1028
2020-02-24T00:42:00+09:00,0.9,���k��,2,���k��,0,87.4,0,0,0,0,0,0,1013.2,1028
2020-02-24T00:43:00+09:00,0.8,���k��,1.7,���k��,0.1,87.9,0,0,0,0,0,0,1013.2,1028
2020-02-24T00:44:00+09:00,0.7,���k��,1.5,��,0,87.9,0,0,0,0,0,0,1013.2,1028
2020-02-24T00:45:00+09:00,0.6,�k��,1.4,���k��,0,88,0,0,0,0,0,0,1013.2,1028
2020-02-24T00:46:00+09:00,0.5,�k��,1.1,���k��,0,88.4,0,0,0,0,0,0,1013.2,1028
2020-02-24T00:47:00+09:00,0.5,�k��,1,�k,0,88.7,0,0,0,0,0,0,1013.2,1028
2020-02-24T00:48:00+09:00,0.4,�k�k��,1,�k,0,88.9,0,0,0,0,0,0,1013.2,1028
2020-02-24T00:49:00+09:00,0.4,�k�k��,1,�k,0.1,89.3,0,0,0,0,0,0,1013.2,1028
2020-02-24T00:50:00+09:00,0.4,�k�k��,1,�k,0,89.2,0,0,0,0,0,0,1013.2,1028
2020-02-24T00:51:00+09:00,0.4,�k�k��,1,�k,0,89.1,0,0,0,0,0,0,1013.1,1027.9
2020-02-24T00:52:00+09:00,0.4,�k�k��,1,�k,0,89.1,0,0,0,0,0,0,1013.1,1027.9
2020-02-24T00:53:00+09:00,0.4,�k�k��,1,�k,0,89.2,0,0,0,0,0,0,1013.1,1027.9
2020-02-24T00:54:00+09:00,0.5,�k�k��,1,�k,0.1,89.4,0,0,0,0,0,0,1013.1,1027.9
2020-02-24T00:55:00+09:00,0.5,�k�k��,1,�k,0.3,89.8,0,0,0,0,0,0,1013.1,1027.9
2020-02-24T00:56:00+09:00,0.5,�k�k��,1,�k,0.3,89.9,0,0,0,0,0,0,1013.1,1027.9
2020-02-24T00:57:00+09:00,0.5,�k�k��,1,�k��,0.3,89.8,0,0,0,0,0,0,1013.1,1027.9
2020-02-24T00:58:00+09:00,0.5,�k�k��,1,�k��,0.1,89,0,0,0,0,0,0,1013.1,1027.9
2020-02-24T00:59:00+09:00,0.5,�k�k��,1,�k��,0.1,88.7,0,0,0,0,0,0,1013.1,1027.9
2020-02-24T01:00:00+09:00,0.6,�k��,1.2,�k��,0,88.4,0,0,0,0,0,0,1013.1,1027.9
2020-02-24T01:01:00+09:00,0.6,�k��,1.2,�k��,0,88.3,0,0,0,0,0,0,1013.1,1027.9
2020-02-24T01:02:00+09:00,0.6,�k��,1.2,�k��,0,88.9,0,0,0,0,0,0,1013.1,1027.9
2020-02-24T01:03:00+09:00,0.6,�k��,1.2,�k��,0,88.9,0,0,0,0,0,0,1013.1,1027.9
2020-02-24T01:04:00+09:00,0.5,�k��,1.2,�k��,0.1,89,0,0,0,0,0,0,1013.2,1028
2020-02-24T01:05:00+09:00,0.5,�k��,1.2,�k��,0,89.3,0,0,0,0,0,0,1013.1,1027.9
2020-02-24T01:06:00+09:00,0.5,���k��,1.2,�k��,0,89.1,0,0,0,0,0,0,1013.1,1027.9
2020-02-24T01:07:00+09:00,0.5,���k��,1.2,�k��,0,89.2,0,0,0,0,0,0,1013.1,1027.9
2020-02-24T01:08:00+09:00,0.5,���k��,1.2,�k��,0,89.2,0,0,0,0,0,0,1013.1,1027.9
2020-02-24T01:09:00+09:00,0.5,���k��,1.2,�k��,0.1,89.8,0,0,0,0,0,0,1013.1,1027.9
2020-02-24T01:10:00+09:00,0.5,�k��,1,��,0,89.6,0,0,0,0,0,0,1013.1,1027.9
2020-02-24T01:11:00+09:00,0.5,�k��,1,��,0,89.6,0,0,0,0,0,0,1013.1,1027.9
2020-02-24T01:12:00+09:00,0.5,�k��,1,��,0.2,89.7,0,0,0,0,0,0,1013.1,1027.9
2020-02-24T01:13:00+09:00,0.5,�k��,1,��,0.2,90,0,0,0,0,0,0,1013.1,1027.9
2020-02-24T01:14:00+09:00,0.4,�k��,1,��,0.1,89.8,0,0,0,0,0,0,1013.1,1027.9
2020-02-24T01:15:00+09:00,0.4,�k��,1,��,0.2,89.6,0,0,0,0,0,0,1013.1,1027.9
2020-02-24T01:16:00+09:00,0.4,�k�k��,0.8,�k,0.1,89.9,0,0,0,0,0,0,1013.2,1028
2020-02-24T01:17:00+09:00,0.3,�k�k��,0.8,�k,0,89.3,0,0,0,0,0,0,1013.2,1028
2020-02-24T01:18:00+09:00,0.2,�É�,0.8,�k,0,89.3,0,0,0,0,0,0,1013.2,1028
2020-02-24T01:19:00+09:00,0.2,�É�,0.8,�k,0.1,89.8,0,0,0,0,0,0,1013.2,1028
2020-02-24T01:20:00+09:00,0.1,�É�,0.7,�k��,0,90.1,0,0,0,0,0,0,1013.2,1028
2020-02-24T01:21:00+09:00,0.1,�É�,0.7,�k��,0,89.8,0,0,0,0,0,0,1013.2,1028
2020-02-24T01:22:00+09:00,0,�É�,0.4,�k,0,89.8,0,0,0,0,0,0,1013.2,1028
2020-02-24T01:23:00+09:00,0,�É�,0.4,�k,0.1,90.2,0,0,0,0,0,0,1013.2,1028
2020-02-24T01:24:00+09:00,0.1,�É�,0.4,�k,0.2,90.8,0,0,0,0,0,0,1013.3,1028.1
2020-02-24T01:25:00+09:00,0.1,�É�,0.6,�k,0,90.6,0,0,0,0,0,0,1013.2,1028
2020-02-24T01:26:00+09:00,0.1,�É�,0.6,�k,0,90.2,0,0,0,0,0,0,1013.2,1028
2020-02-24T01:27:00+09:00,0.2,�É�,1,�k��,0.2,90.6,0,0,0,0,0,0,1013.2,1028
2020-02-24T01:28:00+09:00,0.2,�É�,1,�k��,0,90.7,0,0,0,0,0,0,1013.2,1028
2020-02-24T01:29:00+09:00,0.3,�k��,1,�k��,0,90.2,0,0,0,0,0,0,1013.3,1028.1
2020-02-24T01:30:00+09:00,0.3,�k��,1,�k��,0,90.2,0,0,0,0,0,0,1013.3,1028.1
2020-02-24T01:31:00+09:00,0.4,�k��,1,�k��,0,90.4,0,0,0,0,0,0,1013.3,1028.1
2020-02-24T01:32:00+09:00,0.4,�k��,1,�k��,0,90.3,0,0,0,0,0,0,1013.3,1028.1
2020-02-24T01:33:00+09:00,0.4,�k��,1,�k��,0,90.2,0,0,0,0,0,0,1013.2,1028
2020-02-24T01:34:00+09:00,0.4,�k��,1,�k��,-0.1,90,0,0,0,0,0,0,1013.2,1028
2020-02-24T01:35:00+09:00,0.4,�k��,1,�k��,-0.2,89.5,0,0,0,0,0,0,1013.2,1028
2020-02-24T01:36:00+09:00,0.4,�k��,1,�k��,-0.2,89.5,0,0,0,0,0,0,1013.2,1028
2020-02-24T01:37:00+09:00,0.3,�k��,0.8,���k��,-0.2,89.6,0,0,0,0,0,0,1013.2,1028
2020-02-24T01:38:00+09:00,0.3,�k��,0.8,���k��,-0.4,89.4,0,0,0,0,0,0,1013.2,1028
2020-02-24T01:39:00+09:00,0.3,�k��,0.7,���쐼,-0.3,89.3,0,0,0,0,0,0,1013.2,1028
2020-02-24T01:40:00+09:00,0.3,�k��,0.7,���쐼,-0.4,89.5,0,0,0,0,0,0,1013.2,1028
2020-02-24T01:41:00+09:00,0.3,�k��,0.5,���k��,-0.5,89.5,0,0,0,0,0,0,1013.2,1028
2020-02-24T01:42:00+09:00,0.3,�k��,0.5,���k��,-0.4,89.6,0,0,0,0,0,0,1013.2,1028
2020-02-24T01:43:00+09:00,0.3,�k��,0.5,���k��,-0.3,90.1,0,0,0,0,0,0,1013.2,1028
2020-02-24T01:44:00+09:00,0.3,�k��,0.5,���k��,-0.3,90.2,0,0,0,0,0,0,1013.2,1028
2020-02-24T01:45:00+09:00,0.3,�k��,0.5,���k��,-0.3,90.2,0,0,0,0,0,0,1013.1,1027.9
2020-02-24T01:46:00+09:00,0.3,�k��,0.5,���k��,-0.2,90.3,0,0,0,0,0,0,1013.2,1028
2020-02-24T01:47:00+09:00,0.3,�k��,0.5,���k��,-0.3,90.2,0,0,0,0,0,0,1013.2,1028
2020-02-24T01:48:00+09:00,0.3,�k��,0.5,���k��,-0.2,90.2,0,0,0,0,0,0,1013.2,1028
2020-02-24T01:49:00+09:00,0.3,�k�k��,0.5,���k��,-0.1,90.4,0,0,0,0,0,0,1013.2,1028
2020-02-24T01:50:00+09:00,0.2,�É�,0.5,���k��,-0.3,89.9,0,0,0,0,0,0,1013.2,1028
2020-02-24T01:51:00+09:00,0.2,�É�,0.5,�k��,-0.4,89.6,0,0,0,0,0,0,1013.2,1028
2020-02-24T01:52:00+09:00,0.2,�É�,0.5,�k��,-0.5,89.2,0,0,0,0,0,0,1013.2,1028
2020-02-24T01:53:00+09:00,0.2,�É�,0.4,�k��,-0.5,89.1,0,0,0,0,0,0,1013.1,1027.9
2020-02-24T01:54:00+09:00,0.1,�É�,0.4,�k��,-0.3,89.7,0,0,0,0,0,0,1013.2,1028
2020-02-24T01:55:00+09:00,0.1,�É�,0.4,�k��,-0.3,90.1,0,0,0,0,0,0,1013.1,1027.9
2020-02-24T01:56:00+09:00,0.1,�É�,0.4,�k��,-0.2,90,0,0,0,0,0,0,1013.1,1027.9
2020-02-24T01:57:00+09:00,0.1,�É�,0.4,�k��,-0.3,90.3,0,0,0,0,0,0,1013.2,1028
2020-02-24T01:58:00+09:00,0.1,�É�,0.4,�k��,-0.2,90.1,0,0,0,0,0,0,1013.2,1028
2020-02-24T01:59:00+09:00,0.1,�É�,0.4,�k��,-0.2,90.3,0,0,0,0,0,0,1013.2,1028
2020-02-24T02:00:00+09:00,0.2,�É�,0.5,�k�k��,-0.3,90.1,0,0,0,0,0,0,1013.3,1028.1
2020-02-24T02:01:00+09:00,0.2,�É�,0.7,�k�k��,-0.4,89.7,0,0,0,0,0,0,1013.3,1028.1
2020-02-24T02:02:00+09:00,0.2,�É�,0.7,�k�k��,-0.4,89.6,0,0,0,0,0,0,1013.3,1028.1
2020-02-24T02:03:00+09:00,0.2,�É�,0.7,�k�k��,-0.3,89.8,0,0,0,0,0,0,1013.3,1028.1
2020-02-24T02:04:00+09:00,0.2,�É�,0.7,�k�k��,-0.3,89.9,0,0,0,0,0,0,1013.3,1028.1
2020-02-24T02:05:00+09:00,0.2,�É�,0.7,�k�k��,-0.3,89.9,0,0,0,0,0,0,1013.3,1028.1
2020-02-24T02:06:00+09:00,0.2,�É�,0.7,�k�k��,-0.3,89.9,0,0,0,0,0,0,1013.3,1028.1
2020-02-24T02:07:00+09:00,0.2,�É�,0.7,�k�k��,-0.4,89.8,0,0,0,0,0,0,1013.3,1028.1
2020-02-24T02:08:00+09:00,0.2,�É�,0.7,�k�k��,-0.4,89.7,0,0,0,0,0,0,1013.3,1028.1
2020-02-24T02:09:00+09:00,0.2,�É�,0.7,�k�k��,-0.4,89.9,0,0,0,0,0,0,1013.3,1028.1
2020-02-24T02:10:00+09:00,0.2,�É�,0.7,�k�k��,-0.4,90,0,0,0,0,0,0,1013.3,1028.1
2020-02-24T02:11:00+09:00,0.2,�É�,0.5,�k��,-0.4,90.1,0,0,0,0,0,0,1013.3,1028.1
2020-02-24T02:12:00+09:00,0.2,�É�,0.6,�k�k��,-0.5,89.9,0,0,0,0,0,0,1013.3,1028.1
2020-02-24T02:13:00+09:00,0.2,�É�,0.6,�k�k��,-0.4,90.1,0,0,0,0,0,0,1013.3,1028.1
2020-02-24T02:14:00+09:00,0.2,�É�,0.6,�k�k��,-0.4,90.3,0,0,0,0,0,0,1013.2,1028
2020-02-24T02:15:00+09:00,0.2,�É�,0.6,�k�k��,-0.4,90.4,0,0,0,0,0,0,1013.2,1028
2020-02-24T02:16:00+09:00,0.2,�É�,0.6,�k�k��,-0.4,90.3,0,0,0,0,0,0,1013.2,1028
2020-02-24T02:17:00+09:00,0.2,�É�,0.6,�k�k��,-0.5,90.2,0,0,0,0,0,0,1013.2,1028
2020-02-24T02:18:00+09:00,0.2,�É�,0.6,�k�k��,-0.3,90.4,0,0,0,0,0,0,1013.2,1028
2020-02-24T02:19:00+09:00,0.2,�É�,0.6,�k�k��,-0.4,90.5,0,0,0,0,0,0,1013.2,1028
2020-02-24T02:20:00+09:00,0.2,�É�,0.6,�k�k��,-0.4,90.5,0,0,0,0,0,0,1013.2,1028
2020-02-24T02:21:00+09:00,0.2,�É�,0.6,�k�k��,-0.4,90.4,0,0,0,0,0,0,1013.2,1028
2020-02-24T02:22:00+09:00,0.2,�É�,0.6,�k,-0.4,90.3,0,0,0,0,0,0,1013.2,1028
2020-02-24T02:23:00+09:00,0.2,�É�,0.6,�k,-0.4,90.5,0,0,0,0,0,0,1013.2,1028
2020-02-24T02:24:00+09:00,0.2,�É�,0.6,�k,-0.4,90.5,0,0,0,0,0,0,1013.1,1027.9
2020-02-24T02:25:00+09:00,0.2,�É�,0.5,��,-0.4,90.4,0,0,0,0,0,0,1013.2,1028
2020-02-24T02:26:00+09:00,0.2,�É�,0.5,��,-0.5,90.2,0,0,0,0,0,0,1013.1,1027.9
2020-02-24T02:27:00+09:00,0.2,�É�,0.5,��,-0.4,90.2,0,0,0,0,0,0,1013.1,1027.9
2020-02-24T02:28:00+09:00,0.2,�É�,0.5,��,-0.5,90.3,0,0,0,0,0,0,1013.1,1027.9
2020-02-24T02:29:00+09:00,0.2,�É�,0.5,��,-0.5,90.2,0,0,0,0,0,0,1013.1,1027.9
2020-02-24T02:30:00+09:00,0.2,�É�,0.6,�k��,-0.6,90,0,0,0,0,0,0,1013.1,1027.9
2020-02-24T02:31:00+09:00,0.2,�É�,0.7,���k��,-0.7,90,0,0,0,0,0,0,1013.1,1027.9
2020-02-24T02:32:00+09:00,0.3,�k��,0.7,���k��,-0.7,89.9,0,0,0,0,0,0,1013.1,1027.9
2020-02-24T02:33:00+09:00,0.4,�k��,0.9,��,-0.7,90,0,0,0,0,0,0,1013,1027.8
2020-02-24T02:34:00+09:00,0.4,�k��,1,���쐼,-0.7,90.3,0,0,0,0,0,0,1013.1,1027.9
2020-02-24T02:35:00+09:00,0.5,���k��,1,���쐼,-0.7,90.3,0,0,0,0,0,0,1013,1027.8
2020-02-24T02:36:00+09:00,0.5,���k��,1,���쐼,-0.8,90,0,0,0,0,0,0,1013,1027.8
2020-02-24T02:37:00+09:00,0.6,���k��,1.1,��,-0.6,90.4,0,0,0,0,0,0,1013,1027.8
2020-02-24T02:38:00+09:00,0.7,���k��,1.2,��,-0.6,90.8,0,0,0,0,0,0,1013,1027.8
2020-02-24T02:39:00+09:00,0.8,��,1.3,��,-0.6,90.9,0,0,0,0,0,0,1012.9,1027.7
2020-02-24T02:40:00+09:00,0.9,��,1.3,��,-0.5,91,0,0,0,0,0,0,1013,1027.8
2020-02-24T02:41:00+09:00,0.9,��,1.3,��,-0.6,91,0,0,0,0,0,0,1013,1027.8
2020-02-24T02:42:00+09:00,1,��,1.3,��,-0.6,90.5,0,0,0,0,0,0,1013,1027.8
2020-02-24T02:43:00+09:00,1,��,1.3,��,-0.7,90.6,0,0,0,0,0,0,1013,1027.8
2020-02-24T02:44:00+09:00,1,��,1.3,��,-0.6,90.6,0,0,0,0,0,0,1013,1027.8
2020-02-24T02:45:00+09:00,1,��,1.3,��,-0.6,90.7,0,0,0,0,0,0,1013,1027.8
2020-02-24T02:46:00+09:00,1,��,1.3,��,-0.5,90.5,0,0,0,0,0,0,1012.9,1027.7
2020-02-24T02:47:00+09:00,1,��,1.3,��,-0.5,90.8,0,0,0,0,0,0,1012.9,1027.7
2020-02-24T02:48:00+09:00,1,��,1.3,��,-0.6,90.5,0,0,0,0,0,0,1012.9,1027.7
2020-02-24T02:49:00+09:00,1,��,1.5,��,-0.5,90.3,0,0,0,0,0,0,1012.9,1027.7
2020-02-24T02:50:00+09:00,1,��,1.7,��,-0.6,90.6,0,0,0,0,0,0,1012.9,1027.7
2020-02-24T02:51:00+09:00,1,��,1.7,��,-0.8,89.9,0,0,0,0,0,0,1012.9,1027.7
2020-02-24T02:52:00+09:00,1,��,1.7,��,-0.8,89.5,0,0,0,0,0,0,1012.9,1027.7
2020-02-24T02:53:00+09:00,1.1,��,1.7,��,-0.6,89.9,0,0,0,0,0,0,1012.9,1027.7
2020-02-24T02:54:00+09:00,1.1,��,1.7,��,-0.5,90.4,0,0,0,0,0,0,1013,1027.8
2020-02-24T02:55:00+09:00,1.1,��,1.7,��,-0.5,90.5,0,0,0,0,0,0,1013,1027.8
2020-02-24T02:56:00+09:00,1.1,��,1.7,��,-0.4,90.3,0,0,0,0,0,0,1012.9,1027.7
2020-02-24T02:57:00+09:00,1.1,��,1.7,��,-0.5,90.5,0,0,0,0,0,0,1012.9,1027.7
2020-02-24T02:58:00+09:00,1.1,��,1.7,��,-0.5,90.2,0,0,0,0,0,0,1012.9,1027.7
2020-02-24T02:59:00+09:00,1,��,1.7,��,-0.5,90,0,0,0,0,0,0,1012.9,1027.7
2020-02-24T03:00:00+09:00,0.9,���k��,1.5,��,-0.6,90,0,0,0,0,0,0,1012.9,1027.7
2020-02-24T03:01:00+09:00,0.8,���k��,1.3,��,-0.5,89.7,0,0,0,0,0,0,1012.9,1027.7
2020-02-24T03:02:00+09:00,0.8,���k��,1.3,��,-0.6,89.8,0,0,0,0,0,0,1013,1027.8
2020-02-24T03:03:00+09:00,0.8,���k��,1.3,��,-0.5,90,0,0,0,0,0,0,1013,1027.8
2020-02-24T03:04:00+09:00,0.7,���k��,1.3,��,-0.5,90,0,0,0,0,0,0,1013,1027.8
2020-02-24T03:05:00+09:00,0.7,���k��,1.1,���k��,-0.7,89.6,0,0,0,0,0,0,1013,1027.8
2020-02-24T03:06:00+09:00,0.7,���k��,1.1,���k��,-0.8,89.2,0,0,0,0,0,0,1013,1027.8
2020-02-24T03:07:00+09:00,0.6,���k��,1.1,���k��,-0.8,89,0,0,0,0,0,0,1013,1027.8
2020-02-24T03:08:00+09:00,0.6,�k��,1.1,���k��,-0.7,89.6,0,0,0,0,0,0,1013,1027.8
2020-02-24T03:09:00+09:00,0.5,�k��,1.1,���k��,-0.6,89.6,0,0,0,0,0,0,1013,1027.8
2020-02-24T03:10:00+09:00,0.5,�k��,1.1,���k��,-0.6,89.9,0,0,0,0,0,0,1013,1027.8
2020-02-24T03:11:00+09:00,0.5,�k��,1.1,���k��,-0.9,89.6,0,0,0,0,0,0,1013,1027.8
2020-02-24T03:12:00+09:00,0.4,�k��,1.1,���k��,-0.9,88.9,0,0,0,0,0,0,1013,1027.8
2020-02-24T03:13:00+09:00,0.3,�k��,1,�k��,-0.8,89.2,0,0,0,0,0,0,1013,1027.8
2020-02-24T03:14:00+09:00,0.2,�É�,0.9,���k��,-0.7,89.6,0,0,0,0,0,0,1013,1027.8
2020-02-24T03:15:00+09:00,0.1,�É�,0.9,���k��,-0.6,89.8,0,0,0,0,0,0,1013,1027.8
2020-02-24T03:16:00+09:00,0.1,�É�,0.5,��쐼,-0.7,90,0,0,0,0,0,0,1013,1027.8
2020-02-24T03:17:00+09:00,0.1,�É�,0.5,��쐼,-0.6,90.1,0,0,0,0,0,0,1013,1027.8
2020-02-24T03:18:00+09:00,0.1,�É�,0.5,��쐼,-0.7,89.8,0,0,0,0,0,0,1013,1027.8
2020-02-24T03:19:00+09:00,0.1,�É�,0.6,�쐼,-0.6,89.9,0,0,0,0,0,0,1013,1027.8
2020-02-24T03:20:00+09:00,0.1,�É�,0.9,�쐼,-0.6,89.6,0,0,0,0,0,0,1013,1027.8
2020-02-24T03:21:00+09:00,0.1,�É�,0.9,�쐼,-0.5,89.9,0,0,0,0,0,0,1013,1027.8
2020-02-24T03:22:00+09:00,0.2,�É�,0.9,�쐼,-0.5,90.2,0,0,0,0,0,0,1013,1027.8
2020-02-24T03:23:00+09:00,0.2,�É�,0.9,�쐼,-0.8,89.5,0,0,0,0,0,0,1013.1,1027.9
2020-02-24T03:24:00+09:00,0.2,�É�,0.9,�쐼,-0.6,89.2,0,0,0,0,0,0,1013,1027.8
2020-02-24T03:25:00+09:00,0.2,�É�,0.9,�쐼,-0.6,89.4,0,0,0,0,0,0,1013.1,1027.9
2020-02-24T03:26:00+09:00,0.2,�É�,0.9,�쐼,-0.7,89.6,0,0,0,0,0,0,1013,1027.8
2020-02-24T03:27:00+09:00,0.2,�É�,0.9,�쐼,-0.8,89.2,0,0,0,0,0,0,1013,1027.8
2020-02-24T03:28:00+09:00,0.2,�É�,0.9,�쐼,-0.8,89.2,0,0,0,0,0,0,1013,1027.8
2020-02-24T03:29:00+09:00,0.2,�É�,0.9,�쐼,-0.6,89.3,0,0,0,0,0,0,1013,1027.8
2020-02-24T03:30:00+09:00,0.2,�É�,0.8,�쐼,-0.5,90.2,0,0,0,0,0,0,1013,1027.8
2020-02-24T03:31:00+09:00,0.2,�É�,1,���k��,-0.6,90.2,0,0,0,0,0,0,1013,1027.8
2020-02-24T03:32:00+09:00,0.2,�É�,1,���k��,-0.6,89.6,0,0,0,0,0,0,1013,1027.8
2020-02-24T03:33:00+09:00,0.2,�É�,1,���k��,-0.8,89.5,0,0,0,0,0,0,1013,1027.8
2020-02-24T03:34:00+09:00,0.2,�É�,1,���k��,-0.9,88.8,0,0,0,0,0,0,1013,1027.8
2020-02-24T03:35:00+09:00,0.3,���k��,1,���k��,-1,88.6,0,0,0,0,0,0,1013,1027.8
2020-02-24T03:36:00+09:00,0.3,���k��,1,���k��,-1,88.6,0,0,0,0,0,0,1013,1027.8
2020-02-24T03:37:00+09:00,0.4,��,1,���k��,-0.9,89,0,0,0,0,0,0,1013,1027.8
2020-02-24T03:38:00+09:00,0.4,��,1,���k��,-0.9,89.2,0,0,0,0,0,0,1013,1027.8
2020-02-24T03:39:00+09:00,0.4,��,1,���k��,-0.9,89.4,0,0,0,0,0,0,1013,1027.8
2020-02-24T03:40:00+09:00,0.4,��,1,���k��,-0.7,89.6,0,0,0,0,0,0,1012.9,1027.7
2020-02-24T03:41:00+09:00,0.4,���쐼,0.8,��,-0.6,90.1,0,0,0,0,0,0,1013,1027.8
2020-02-24T03:42:00+09:00,0.3,���쐼,0.8,��,-0.5,90.4,0,0,0,0,0,0,1013,1027.8
2020-02-24T03:43:00+09:00,0.3,���쐼,0.8,��,-0.5,90.4,0,0,0,0,0,0,1013,1027.8
2020-02-24T03:44:00+09:00,0.2,�É�,0.8,��,-0.6,89.9,0,0,0,0,0,0,1013,1027.8
2020-02-24T03:45:00+09:00,0.2,�É�,0.8,��,-0.7,89.4,0,0,0,0,0,0,1013,1027.8
2020-02-24T03:46:00+09:00,0.2,�É�,0.8,��,-0.9,88.9,0,0,0,0,0,0,1013,1027.8
2020-02-24T03:47:00+09:00,0.1,�É�,0.8,��,-0.9,88.4,0,0,0,0,0,0,1013,1027.8
2020-02-24T03:48:00+09:00,0.1,�É�,0.6,���쐼,-1.1,88,0,0,0,0,0,0,1013,1027.8
2020-02-24T03:49:00+09:00,0.2,�É�,0.6,���쐼,-1.1,88,0,0,0,0,0,0,1013,1027.8
2020-02-24T03:50:00+09:00,0.2,�É�,0.6,���쐼,-1.2,88,0,0,0,0,0,0,1013,1027.8
2020-02-24T03:51:00+09:00,0.3,�k��,0.7,���k��,-1.2,88.4,0,0,0,0,0,0,1013,1027.8
2020-02-24T03:52:00+09:00,0.3,�k��,0.7,���k��,-1.2,88.4,0,0,0,0,0,0,1013,1027.8
2020-02-24T03:53:00+09:00,0.3,���k��,0.7,���k��,-1.2,88.6,0,0,0,0,0,0,1013,1027.8
2020-02-24T03:54:00+09:00,0.4,�k��,0.7,���k��,-1.3,88.7,0,0,0,0,0,0,1013,1027.8
2020-02-24T03:55:00+09:00,0.4,�k��,0.7,���k��,-1.2,88.7,0,0,0,0,0,0,1013,1027.8
2020-02-24T03:56:00+09:00,0.4,�k��,0.7,���k��,-1.3,89,0,0,0,0,0,0,1013,1027.8
2020-02-24T03:57:00+09:00,0.4,���k��,0.7,���k��,-1.4,88.9,0,0,0,0,0,0,1013,1027.8
2020-02-24T03:58:00+09:00,0.4,�k��,0.7,���k��,-1.2,89,0,0,0,0,0,0,1013,1027.8
2020-02-24T03:59:00+09:00,0.3,�k��,0.7,���k��,-1.3,89.2,0,0,0,0,0,0,1013,1027.8
2020-02-24T04:00:00+09:00,0.3,�k��,0.7,���k��,-1,89.4,0,0,0,0,0,0,1013,1027.8
2020-02-24T04:01:00+09:00,0.2,�É�,0.7,���k��,-1.1,89.7,0,0,0,0,0,0,1013,1027.8
2020-02-24T04:02:00+09:00,0.2,�É�,0.6,��,-1.1,89.5,0,0,0,0,0,0,1013,1027.8
2020-02-24T04:03:00+09:00,0.1,�É�,0.4,���k��,-1.3,89.3,0,0,0,0,0,0,1013,1027.8
2020-02-24T04:04:00+09:00,0.1,�É�,0.4,���k��,-1.2,89.1,0,0,0,0,0,0,1013,1027.8
2020-02-24T04:05:00+09:00,0.1,�É�,0.4,���k��,-1,89.6,0,0,0,0,0,0,1013,1027.8
2020-02-24T04:06:00+09:00,0,�É�,0.3,�k��,-1.1,89.8,0,0,0,0,0,0,1013,1027.8
2020-02-24T04:07:00+09:00,0,�É�,0.3,�k��,-1.1,89.3,0,0,0,0,0,0,1013,1027.8
2020-02-24T04:08:00+09:00,0,�É�,0.3,�k��,-1.1,89.5,0,0,0,0,0,0,1013,1027.8
2020-02-24T04:09:00+09:00,0,�É�,0.3,�k��,-0.9,89.7,0,0,0,0,0,0,1013,1027.8
2020-02-24T04:10:00+09:00,0,�É�,0.3,�k��,-0.8,90.4,0,0,0,0,0,0,1013,1027.8
2020-02-24T04:11:00+09:00,0,�É�,0.5,���k��,-0.8,90.5,0,0,0,0,0,0,1013,1027.8
2020-02-24T04:12:00+09:00,0,�É�,0.5,���k��,-0.8,90.3,0,0,0,0,0,0,1013,1027.8
2020-02-24T04:13:00+09:00,0.1,�É�,0.5,���k��,-1,89.9,0,0,0,0,0,0,1013,1027.8
2020-02-24T04:14:00+09:00,0.1,�É�,0.5,���k��,-1.1,89.2,0,0,0,0,0,0,1013,1027.8
2020-02-24T04:15:00+09:00,0.1,�É�,0.5,���k��,-1.2,89.1,0,0,0,0,0,0,1013,1027.8
2020-02-24T04:16:00+09:00,0.1,�É�,0.5,���k��,-1.2,89.1,0,0,0,0,0,0,1013,1027.8
2020-02-24T04:17:00+09:00,0.2,�É�,0.5,���k��,-1.1,89.4,0,0,0,0,0,0,1013,1027.8
2020-02-24T04:18:00+09:00,0.2,�É�,0.5,���k��,-1.1,89.6,0,0,0,0,0,0,1013,1027.8
2020-02-24T04:19:00+09:00,0.2,�É�,0.5,���k��,-1,89.8,0,0,0,0,0,0,1013,1027.8
2020-02-24T04:20:00+09:00,0.2,�É�,0.5,���k��,-1.1,90.2,0,0,0,0,0,0,1013,1027.8
2020-02-24T04:21:00+09:00,0.2,�É�,0.5,���k��,-1.1,90.2,0,0,0,0,0,0,1013,1027.8
2020-02-24T04:22:00+09:00,0.2,�É�,0.7,��,-1.1,90.2,0,0,0,0,0,0,1013,1027.8
2020-02-24T04:23:00+09:00,0.3,�k��,0.8,��,-1.1,90.2,0,0,0,0,0,0,1013,1027.8
2020-02-24T04:24:00+09:00,0.3,�k��,0.8,��,-1.2,90.2,0,0,0,0,0,0,1013,1027.8
2020-02-24T04:25:00+09:00,0.3,�k��,0.8,��,-1.2,90.1,0,0,0,0,0,0,1013,1027.8
2020-02-24T04:26:00+09:00,0.3,�k��,0.8,��,-1.1,90.2,0,0,0,0,0,0,1013,1027.8
2020-02-24T04:27:00+09:00,0.3,�k��,0.8,��,-1.1,90.4,0,0,0,0,0,0,1013,1027.8
2020-02-24T04:28:00+09:00,0.3,���k��,0.8,��,-1.1,90.5,0,0,0,0,0,0,1013,1027.8
2020-02-24T04:29:00+09:00,0.3,���k��,0.8,��,-1,90.7,0,0,0,0,0,0,1013,1027.8
2020-02-24T04:30:00+09:00,0.4,���k��,0.8,��,-1,90.6,0,0,0,0,0,0,1013,1027.8
2020-02-24T04:31:00+09:00,0.4,���k��,0.8,��,-1,90.8,0,0,0,0,0,0,1013,1027.8
2020-02-24T04:32:00+09:00,0.3,�k��,0.8,��,-0.9,90.7,0,0,0,0,0,0,1013.1,1027.9
2020-02-24T04:33:00+09:00,0.3,�k��,0.6,�k��,-0.9,90.7,0,0,0,0,0,0,1013,1027.8
2020-02-24T04:34:00+09:00,0.2,�É�,0.6,�k��,-0.9,90.6,0,0,0,0,0,0,1013,1027.8
2020-02-24T04:35:00+09:00,0.2,�É�,0.6,�k��,-1,90.3,0,0,0,0,0,0,1013.1,1027.9
2020-02-24T04:36:00+09:00,0.2,�É�,0.6,�k��,-0.8,90.3,0,0,0,0,0,0,1013,1027.8
2020-02-24T04:37:00+09:00,0.2,�É�,0.6,�k��,-0.9,90.5,0,0,0,0,0,0,1013,1027.8
2020-02-24T04:38:00+09:00,0.1,�É�,0.6,�k��,-0.8,90.3,0,0,0,0,0,0,1013,1027.8
2020-02-24T04:39:00+09:00,0.1,�É�,0.4,�k��,-0.8,90.4,0,0,0,0,0,0,1013,1027.8
2020-02-24T04:40:00+09:00,0,�É�,0.4,�k��,-0.9,90.2,0,0,0,0,0,0,1013,1027.8
2020-02-24T04:41:00+09:00,0,�É�,0.4,�k��,-0.9,89.9,0,0,0,0,0,0,1013,1027.8
2020-02-24T04:42:00+09:00,0,�É�,0.5,���k��,-0.9,90,0,0,0,0,0,0,1013,1027.8
2020-02-24T04:43:00+09:00,0,�É�,0.5,���k��,-0.8,90,0,0,0,0,0,0,1013,1027.8
2020-02-24T04:44:00+09:00,0,�É�,0.5,���k��,-0.9,90.1,0,0,0,0,0,0,1013,1027.8
2020-02-24T04:45:00+09:00,0,�É�,0.5,���k��,-0.8,90.2,0,0,0,0,0,0,1013,1027.8
2020-02-24T04:46:00+09:00,0,�É�,0.5,���k��,-0.9,90.2,0,0,0,0,0,0,1013,1027.8
2020-02-24T04:47:00+09:00,0.1,�É�,0.5,���k��,-0.9,89.9,0,0,0,0,0,0,1013,1027.8
2020-02-24T04:48:00+09:00,0.1,�É�,0.5,���k��,-0.9,90,0,0,0,0,0,0,1013,1027.8
2020-02-24T04:49:00+09:00,0.1,�É�,0.5,���k��,-1,90.2,0,0,0,0,0,0,1013,1027.8
2020-02-24T04:50:00+09:00,0.1,�É�,0.7,���k��,-1,90.1,0,0,0,0,0,0,1013,1027.8
2020-02-24T04:51:00+09:00,0.2,�É�,0.7,���k��,-0.8,90.5,0,0,0,0,0,0,1013,1027.8
2020-02-24T04:52:00+09:00,0.2,�É�,0.7,���k��,-1,90.5,0,0,0,0,0,0,1012.9,1027.7
2020-02-24T04:53:00+09:00,0.2,�É�,0.9,��,-1.1,90.1,0,0,0,0,0,0,1012.9,1027.7
2020-02-24T04:54:00+09:00,0.3,�k��,0.9,��,-1.1,90.2,0,0,0,0,0,0,1013,1027.8
2020-02-24T04:55:00+09:00,0.3,�k��,0.9,��,-1.1,90.3,0,0,0,0,0,0,1013,1027.8
2020-02-24T04:56:00+09:00,0.4,�k��,0.9,��,-1.1,90.8,0,0,0,0,0,0,1012.9,1027.7
2020-02-24T04:57:00+09:00,0.4,���k��,0.9,��,-1.1,90.8,0,0,0,0,0,0,1012.9,1027.7
2020-02-24T04:58:00+09:00,0.4,���k��,0.9,��,-1.2,90.9,0,0,0,0,0,0,1012.9,1027.7
2020-02-24T04:59:00+09:00,0.4,���k��,0.9,��,-1.2,91.2,0,0,0,0,0,0,1012.9,1027.7
2020-02-24T05:00:00+09:00,0.4,��,0.9,��,-1.2,91,0,0,0,0,0,0,1012.9,1027.7
2020-02-24T05:01:00+09:00,0.4,��,0.9,��,-1,91.4,0,0,0,0,0,0,1013,1027.8
2020-02-24T05:02:00+09:00,0.4,��,0.9,��,-1.1,91.8,0,0,0,0,0,0,1013,1027.8
2020-02-24T05:03:00+09:00,0.4,��,0.9,���k��,-1.3,91.5,0,0,0,0,0,0,1013,1027.8
2020-02-24T05:04:00+09:00,0.3,��,0.9,���k��,-1.3,91.1,0,0,0,0,0,0,1013,1027.8
2020-02-24T05:05:00+09:00,0.3,��,0.8,��,-1.4,91.4,0,0,0,0,0,0,1013,1027.8
2020-02-24T05:06:00+09:00,0.2,�É�,0.8,��,-1.2,91.5,0,0,0,0,0,0,1012.9,1027.7
2020-02-24T05:07:00+09:00,0.2,�É�,0.8,��,-1.2,92.1,0,0,0,0,0,0,1012.9,1027.7
2020-02-24T05:08:00+09:00,0.2,�É�,0.9,��,-1.3,91.9,0,0,0,0,0,0,1012.9,1027.7